Regional Weather Roundup
Issued by NWS

Home | Current Version | Previous Version | Graphics & Text | Print | Product List | Glossary On
Versions: 1 2 3 4 5 6 7 8 9 10 11 12 13 14 15 16 17 18 19 20 21 22 23 24 25 26 27 28 29 30 31 32 33 34 35 36 37 38 39 40 41 42 43 44 45 46 47 48 49 50
000
ASUS45 KPSR 031610
RWRAZ

ARIZONA HOURLY REGIONAL WEATHER ROUNDUP
NATIONAL WEATHER SERVICE PHOENIX AZ
900 AM MST FRI JUL 03 2015

NOTE: FAIR INDICATES FEW OR NO CLOUDS BELOW 12,000 FEET WITH NO
SIGNIFICANT WEATHER AND/OR OBSTRUCTIONS TO VISIBILITY.

AZZ001>003-036-031700-
NORTHWEST ARIZONA

CITY           SKY/WX    TMP DP  RH WIND       PRES   REMARKS
BULLHEAD CITY  PTSUNNY   97  57  26 SW8       29.82S
KINGMAN        SUNNY     92  49  22 SW14      30.02R
$$

AZZ004>008-015-016-018-031700-
NORTH CENTRAL ARIZONA

CITY           SKY/WX    TMP DP  RH WIND       PRES   REMARKS
GRAND CANYON   SUNNY     75  54  47 S12       30.26
WILLIAMS       MOSUNNY   73  54  49 S10       30.35S
PRESCOTT       CLOUDY    72  60  66 SW13      30.18F
FLAGSTAFF      PTSUNNY   67  53  61 SW17      30.31R
PAYSON         CLOUDY    73  55  53 S7        30.22S
PAGE           CLOUDY    83  52  34 CALM      30.05R
$$

AZZ009>014-017-031700-
NORTHEAST ARIZONA

CITY           SKY/WX    TMP DP  RH WIND       PRES   REMARKS
WINSLOW        PTSUNNY   81  54  39 SW15      30.13R
SAINT JOHNS    PTSUNNY   77  55  46 CALM      30.21R
WINDOW ROCK    SUNNY     75  53  46 S9        30.28S
SHOW LOW       PTSUNNY   68  54  60 S18       30.28R
$$

AZZ023-031700-
GREATER PHOENIX AREA

CITY           SKY/WX    TMP DP  RH WIND       PRES   REMARKS
PHOENIX        CLOUDY    86  66  51 E7        29.90R
BUCKEYE        CLOUDY    86  63  45 E17       29.91S
GLENDALE       PTSUNNY   88  64  45 NE7       29.93R
LUKE AFB       CLOUDY    86  66  51 NE6       29.91R
DEER VALLEY    CLOUDY    85  64  49 N5        29.93S
SCOTTSDALE     CLOUDY    87  62  43 CALM      29.94S
MESA-FALCON    CLOUDY    86  61  42 NE9       29.92S
MESA-GATEWAY   CLOUDY    81  68  65 E5        29.93F
CHANDLER       PTSUNNY   81  70  69 E12       29.91F
$$

AZZ027-028-031700-
SOUTHWEST MARICOPA COUNTY AND PINAL COUNTY

CITY           SKY/WX    TMP DP  RH WIND       PRES   REMARKS
CASA GRANDE    CLOUDY    81  64  57 NE5       29.89F
GILA BEND      FAIR      94  57  29 N6        29.86S
$$

AZZ503-504-507>509-031700-
SOUTHEAST ARIZONA

CITY           SKY/WX    TMP DP  RH WIND       PRES   REMARKS
TUCSON         CLOUDY    86  59  39 CALM      29.97F
DAVIS-MONTHAN  CLOUDY    86  59  40 NE7       29.96F
RYAN FIELD     SUNNY     88  61  40 S6        29.96F
NOGALES        CLOUDY    80  61  52 NE3       30.07F
SIERRA VISTA   CLOUDY    74  59  60 VRB6      30.15F
DOUGLAS        PTSUNNY   78  59  51 N8        30.12S
SAFFORD        PTSUNNY   74  69  85 SW8       30.05F
$$

AZZ020-021-025-026-031-031700-
SOUTHWEST ARIZONA

CITY           SKY/WX    TMP DP  RH WIND       PRES   REMARKS
YUMA           MOSUNNY   93  55  27 VRB3      29.82R
$$

CAZ031-033-041-043-047-048-061-031700-
SOUTHERN CALIFORNIA

CITY           SKY/WX    TMP DP  RH WIND       PRES   REMARKS
DOWNTOWN L.A.  SUNNY     71  61  70 CALM      29.97R
L.A. AIRPORT   CLOUDY    65  62  90 S5        29.99R
SAN DIEGO      CLOUDY    69  61  75 NW5       29.99R
BURBANK        SUNNY     72  58  61 SE8       29.97R
ONTARIO        PTSUNNY   74  58  57 W6        29.97S
RIVERSIDE      SUNNY     75  58  55 CALM      29.97S
PALM SPRINGS   MOSUNNY   93  56  28 VRB3      29.84R
EL CENTRO NAS  SUNNY     94  49  21 S5        29.82R
IMPERIAL       SUNNY     93  55  27 VRB5      29.80R
BLYTHE         MOSUNNY   94  60  32 CALM      29.81R
NEEDLES        CLOUDY   100  51  19 W13       29.83R
$$

NVZ020-UTZ003-031700-
SOUTHERN NEVADA-UTAH

CITY           SKY/WX    TMP DP  RH WIND       PRES   REMARKS
LAS VEGAS      PTSUNNY   94  52  24 S14       29.87R
SALT LAKE CITY MOSUNNY   85  50  29 SE6       30.02F
$$

NMZ009-TXZ055-031700-
NEW MEXICO-WEST TEXAS

CITY           SKY/WX    TMP DP  RH WIND       PRES   REMARKS
ALBUQUERQUE    PTSUNNY   76  58  53 S8        30.21S
EL PASO        CLOUDY    82  58  43 N15       30.07S
$$


........................KEY........................
SKY/WX - SKY CONDITION/WEATHER
TMP    - TEMPERATURE IN FAHRENHEIT
DP     - DEW POINT IN FAHRENHEIT
RH     - RELATIVE HUMIDITY IN PERCENT
WIND   - DIRECTION AND SPEED IN MILES PER HOUR (MPH)
VRB    - VARIABLE WIND DIRECTION
PRES   - MEAN SEA LEVEL PRESSURE IN INCHES OF MERCURY
         F - FALLING PRESSURE   R - RISING PRESSURE
         S - STEADY PRESSURE
VSB    - VISIBILITY IN MILES
HX     - HEAT INDEX IN FAHRENHEIT
WCI    - WIND CHILL INDEX IN FAHRENHEIT
TC     - TEMPERATURE IN CELSIUS WHICH IS ALSO KNOWN AS
         TEMPERATURE IN CENTIGRADE
AFB    - AIR FORCE BASE
         LUKE AFB IS LUKE AIR FORCE BASE
         DAVIS-MONTHAN IS DAVIS-MONTHAN AIR FORCE BASE
NAS    - NAVAL AIR STATION
         EL CENTRO NAS IS EL CENTRO NAVAL AIR STATION
N/A    - NOT AVAILABLE



USA.gov is the U.S. government's official web portal to all federal, state and local government web resources and services.